TimeCST,TemperatureF,Dew PointF,Humidity,Sea Level PressureIn,VisibilityMPH,Wind Direction,Wind SpeedMPH,Gust SpeedMPH,PrecipitationIn,Events,Conditions,WindDirDegrees,DateUTC
12:39 AM,-5.1,-9.9,80,30.26,10.0,NE,12.7,-,N/A,,Overcast,40,2014-01-01 06:39:00
12:52 AM,-5.1,-9.9,80,30.38,10.0,NE,12.7,-,N/A,,Overcast,40,2014-01-01 06:52:00
1:11 AM,-4.0,-9.0,79,30.27,10.0,NE,11.5,-,N/A,,Overcast,40,2014-01-01 07:11:00
1:52 AM,-4.0,-9.9,76,30.38,4.0,NE,15.0,-,0.00,Snow,Light Snow,40,2014-01-01 07:52:00
2:05 AM,-5.1,-9.9,80,30.26,3.0,NE,13.8,-,0.01,Snow,Light Snow,40,2014-01-01 08:05:00
2:18 AM,-5.1,-9.9,80,30.26,3.0,NE,13.8,-,0.01,Snow,Light Snow,40,2014-01-01 08:18:00
2:52 AM,-4.0,-9.9,76,30.39,7.0,NNE,13.8,-,0.01,,Overcast,20,2014-01-01 08:52:00
3:41 AM,-4.0,-9.9,76,30.28,2.0,NNE,12.7,-,0.00,Snow,Light Snow,30,2014-01-01 09:41:00
3:52 AM,-4.0,-9.9,76,30.38,2.5,NNE,11.5,-,0.00,Snow,Light Snow,30,2014-01-01 09:52:00
4:04 AM,-4.0,-9.0,79,30.27,4.0,NNE,10.4,-,0.00,,Haze,30,2014-01-01 10:04:00
4:52 AM,-4.0,-9.9,76,30.38,10.0,NE,11.5,-,0.00,,Overcast,40,2014-01-01 10:52:00
5:52 AM,-4.0,-9.9,76,30.38,10.0,NNE,13.8,-,N/A,,Partly Cloudy,30,2014-01-01 11:52:00
6:52 AM,-5.1,-11.0,76,30.39,10.0,NNE,11.5,-,N/A,,Clear,30,2014-01-01 12:52:00
7:52 AM,-4.0,-9.9,76,30.42,10.0,NNE,13.8,-,N/A,,Overcast,30,2014-01-01 13:52:00
8:52 AM,-4.0,-9.9,76,30.44,10.0,NNE,17.3,-,N/A,,Overcast,20,2014-01-01 14:52:00
9:52 AM,-2.9,-9.0,75,30.46,10.0,NNE,15.0,-,N/A,,Overcast,20,2014-01-01 15:52:00
10:52 AM,-2.0,-9.0,72,30.47,10.0,NNE,16.1,-,N/A,,Overcast,20,2014-01-01 16:52:00
11:52 AM,-2.0,-8.0,76,30.45,10.0,NNE,15.0,-,N/A,,Overcast,20,2014-01-01 17:52:00
12:52 PM,-0.9,-8.0,72,30.43,10.0,NNE,13.8,-,N/A,,Overcast,20,2014-01-01 18:52:00
1:52 PM,-0.0,-8.0,69,30.43,10.0,North,13.8,-,N/A,,Overcast,10,2014-01-01 19:52:00
2:52 PM,-0.0,-8.0,69,30.43,10.0,North,13.8,-,N/A,,Overcast,360,2014-01-01 20:52:00
3:52 PM,-0.9,-8.0,72,30.44,10.0,North,11.5,-,N/A,,Overcast,10,2014-01-01 21:52:00
4:52 PM,-0.9,-8.0,72,30.45,10.0,North,11.5,-,N/A,,Overcast,360,2014-01-01 22:52:00
5:52 PM,-0.9,-8.0,72,30.48,10.0,North,13.8,-,N/A,,Overcast,360,2014-01-01 23:52:00
6:52 PM,-0.9,-8.0,72,30.48,10.0,North,11.5,-,N/A,,Overcast,350,2014-01-02 00:52:00
7:52 PM,-0.9,-8.0,72,30.48,10.0,North,10.4,-,N/A,,Overcast,360,2014-01-02 01:52:00
8:52 PM,-0.9,-8.0,72,30.48,10.0,North,12.7,-,N/A,,Overcast,360,2014-01-02 02:52:00
9:52 PM,-0.9,-7.1,75,30.49,10.0,NNW,10.4,-,N/A,,Overcast,340,2014-01-02 03:52:00
10:52 PM,-0.9,-7.1,75,30.47,10.0,North,10.4,-,N/A,,Overcast,360,2014-01-02 04:52:00
11:52 PM,-0.9,-7.1,75,30.47,10.0,North,10.4,-,N/A,,Overcast,350,2014-01-02 05:52:00